GFSNIL_sfc_30mbdewp_090.txt.gz
Dewpoint
52 52 52 49 48 48 49 49 53 53 52 52 53 54 54 55 56 56 55 55 55 54
55 52 51 50 50 51 51 51 52 53 53 53 54 54 55 55 56 56 57 57 57 56
55 54 52 53 50 51 50 50 50 52 53 53 53 55 55 56 56 56 57 57 57 56
55 55 53 53 54 51 50 49 49 50 51 52 53 54 55 56 56 56 56 57 55 56
55 55 55 53 54 54 52 50 49 48 48 49 53 54 54 55 55 55 55 55 55 56
55 55 56 56 55 54 53 52 51 48 48 50 51 53 55 55 55 55 55 55 54 54
55 55 55 56 56 56 55 54 52 50 51 50 52 53 54 54 54 54 54 54 54 54
55 56 55 55 55 56 56 55 54 54 52 53 53 54 54 53 53 52 53 53 54 51
56 56 55 55 55 55 56 56 55 54 54 53 54 53 51 52 53 52 53 50 43 40
53 55 55 56 56 55 55 55 55 55 55 54 54 50 49 48 51 50 46 43 38 36
52 54 54 54 54 55 55 55 55 54 54 50 44 45 45 44 40 38 36 36 34 33
52 52 53 53 54 54 54 55 53 48 46 42 37 38 38 38 35 33 32 33 32 32
52 52 52 52 52 49 45 41 39 36 36 35 35 35 35 34 32 30 29 29 29 29
51 51 48 45 42 41 38 35 33 31 32 32 32 33 33 32 30 29 27 27 26 28

GFSNIL_sfc_30mbdewp_093.txt.gz
Dewpoint
51 51 50 48 49 48 47 47 50 52 53 53 53 53 54 54 54 55 54 53 54 53
51 51 50 49 48 49 49 49 53 51 51 52 53 54 54 54 55 55 54 54 54 54
51 51 51 49 48 48 48 49 52 53 52 51 52 54 54 55 55 55 56 56 55 55
53 52 51 51 49 50 51 51 51 52 52 52 53 54 54 54 55 55 55 56 56 56
55 54 52 51 51 50 51 51 50 50 51 52 51 52 54 54 54 55 55 55 56 55
55 55 54 53 53 51 51 50 50 49 50 50 51 53 53 53 54 55 55 55 55 55
54 55 55 53 53 54 53 51 50 49 49 48 49 50 54 53 53 54 55 55 55 55
53 53 55 55 54 53 54 53 53 51 49 48 48 48 51 53 54 54 54 54 53 49
54 54 55 55 56 55 55 54 53 53 51 50 50 48 47 50 53 54 53 50 44 40
54 54 54 55 55 56 56 56 55 54 53 53 51 50 49 50 53 53 50 46 40 37
55 55 55 55 54 54 55 55 56 56 55 53 47 48 48 46 43 41 38 37 36 34
54 55 55 55 55 55 55 55 54 50 48 46 40 40 41 42 38 34 33 33 33 33
54 53 54 54 54 50 50 43 40 37 37 36 36 35 36 35 33 30 29 29 30 30
54 54 52 49 45 41 38 35 33 32 32 33 33 33 33 33 31 29 27 27 27 28

GFSNIL_sfc_30mbdewp_096.txt.gz
Dewpoint
50 50 50 50 50 50 51 52 52 52 52 52 51 51 53 52 51 52 51 51 51 50
51 50 50 50 50 49 49 50 50 50 51 52 51 51 52 52 52 54 54 53 53 53
51 51 50 49 49 49 48 49 51 51 52 53 52 52 52 52 54 53 54 54 54 53
50 51 51 49 49 49 49 49 52 51 52 52 52 53 52 52 53 54 54 54 54 53
51 51 51 50 49 50 49 50 50 51 50 51 51 52 53 53 53 53 53 54 55 54
53 51 51 51 50 49 51 50 51 50 50 49 50 51 52 52 53 54 54 54 54 54
55 54 52 51 51 50 50 50 50 50 50 49 50 50 50 52 53 54 54 54 54 54
54 55 55 53 52 52 51 51 50 49 49 49 49 49 50 51 50 52 53 53 54 54
52 54 55 54 53 53 53 52 51 50 49 48 48 47 47 49 53 53 53 53 48 43
53 52 53 55 54 53 53 53 53 52 51 50 49 47 46 46 49 52 52 51 45 40
54 53 52 53 53 55 55 54 53 53 53 53 52 50 47 45 46 45 44 44 42 39
54 54 54 53 54 55 55 55 55 55 54 53 48 46 47 45 41 37 35 34 35 34
55 55 54 54 54 55 55 54 49 46 45 44 42 39 42 42 36 33 30 30 31 32
48 53 55 55 53 49 46 41 39 36 34 34 34 35 36 36 35 32 29 29 28 29

GFSNIL_sfc_30mbdewp_099.txt.gz
Dewpoint
52 52 51 51 52 53 53 53 54 54 54 53 54 53 53 51 51 48 48 47 47 48
51 51 51 51 51 51 53 54 54 54 54 54 54 53 53 53 52 52 51 50 50 49
50 51 51 51 50 50 51 53 53 53 54 54 54 54 53 52 52 52 53 53 51 52
51 50 50 50 50 49 49 50 51 52 52 52 52 52 52 51 51 52 52 53 53 53
51 50 50 50 50 49 49 50 50 51 51 52 52 52 51 50 50 51 52 52 53 53
51 51 50 50 49 50 49 49 51 51 51 51 52 52 51 51 50 50 51 52 53 53
51 51 51 51 50 49 50 50 49 50 50 51 51 51 51 52 51 51 52 52 52 53
52 52 51 51 51 50 50 50 50 49 50 50 49 50 50 51 51 52 52 53 54 54
54 54 53 52 51 51 50 50 50 50 50 49 49 48 47 48 49 50 51 52 53 50
53 54 54 54 53 52 51 51 50 50 49 49 49 48 47 47 49 50 51 50 50 46
52 52 53 54 54 53 53 52 52 51 50 50 49 48 46 46 47 48 48 50 50 47
54 53 53 53 54 54 53 53 53 53 53 51 51 49 47 46 45 42 40 39 39 40
49 54 54 53 53 53 54 54 54 53 50 52 52 47 48 47 43 38 34 32 33 34
40 44 47 54 54 54 54 50 45 40 35 36 38 37 39 42 40 35 31 29 29 30

GFSNIL_sfc_30mbdewp_102.txt.gz
Dewpoint
52 52 52 52 53 53 53 54 56 56 54 53 54 52 52 51 51 50 49 48 47 47
52 52 52 52 53 53 54 54 55 55 54 54 54 53 52 50 51 50 50 47 46 47
52 51 51 51 52 52 54 54 54 54 54 54 54 53 53 53 52 51 51 51 48 49
51 51 51 51 51 51 53 53 53 54 53 53 53 53 53 52 52 52 52 52 50 50
51 51 50 51 51 50 51 53 53 53 53 54 53 53 52 52 52 51 51 51 50 50
50 50 50 50 50 50 50 51 52 52 52 52 52 53 52 52 52 51 51 52 52 51
51 50 50 50 50 50 49 50 50 51 51 52 52 52 52 52 51 51 50 50 52 52
51 51 51 50 49 50 49 49 50 51 51 51 51 52 52 51 51 50 50 49 51 52
52 51 51 51 50 49 50 50 49 49 50 50 50 50 50 51 51 51 51 50 51 51
53 52 51 51 51 51 50 50 50 50 49 50 50 48 48 49 50 50 51 51 51 50
54 54 54 53 52 51 51 51 50 50 50 50 50 48 46 46 48 48 48 49 49 48
53 53 53 54 54 53 52 52 52 51 50 50 50 48 47 46 46 46 46 45 46 48
43 47 50 53 53 54 54 53 52 52 52 51 50 49 48 46 47 45 40 36 36 38
35 38 40 43 51 53 54 52 44 37 33 34 34 35 37 42 47 42 34 32 30 31

GFSNIL_sfc_30mbdewp_105.txt.gz
Dewpoint
54 53 53 53 53 54 54 55 57 57 55 54 53 53 51 51 52 52 52 52 50 49
53 53 53 53 52 53 54 55 57 57 56 54 54 54 51 51 51 52 53 52 51 49
53 53 53 53 52 53 54 54 55 56 55 54 55 53 52 52 52 52 52 51 50 51
53 53 53 53 53 53 54 54 55 55 54 54 54 53 52 51 51 51 51 51 51 51
52 53 53 52 53 54 54 54 54 54 54 54 53 53 51 50 49 51 51 51 51 50
51 52 52 52 52 53 53 54 54 54 53 53 53 52 51 51 49 49 51 51 51 50
51 52 52 52 52 52 52 53 53 53 53 53 53 53 52 52 51 50 50 51 51 50
50 51 52 51 51 51 51 52 52 53 53 53 53 53 53 52 52 52 51 52 52 52
51 51 51 51 51 51 51 50 51 51 52 53 53 52 52 52 52 51 51 51 51 50
51 51 51 52 51 50 50 50 50 50 51 51 52 50 50 50 52 51 51 51 50 50
53 52 51 51 51 51 50 50 50 50 50 50 51 49 49 49 52 52 52 52 52 51
47 51 53 52 51 52 52 51 50 51 50 50 50 49 47 47 49 50 50 51 51 51
38 41 42 44 52 53 53 52 52 47 40 40 46 39 45 46 47 47 46 37 37 38
34 35 36 38 39 43 52 42 36 33 32 33 34 36 39 42 46 42 35 33 31 32

GFSNIL_sfc_30mbdewp_108.txt.gz
Dewpoint
57 56 55 54 53 54 55 56 59 58 57 56 55 55 55 55 55 55 54 54 53 52
56 55 54 54 53 54 54 56 57 57 56 56 55 54 54 54 55 55 54 55 54 52
57 55 54 54 54 54 55 55 55 57 56 55 54 54 53 53 53 54 54 54 53 53
55 55 54 54 54 54 54 54 54 56 57 55 54 54 52 52 53 53 53 54 53 52
54 54 53 53 53 54 54 54 54 55 55 54 54 54 52 51 52 51 52 52 52 52
54 53 53 53 53 54 54 54 54 54 55 54 54 53 53 52 52 51 51 51 51 51
53 53 53 53 53 53 54 53 53 52 53 54 54 53 52 51 50 51 51 51 51 51
53 52 53 52 53 53 52 53 54 53 53 54 54 53 53 51 50 49 50 51 50 50
52 51 52 52 52 53 52 52 54 54 54 54 53 53 52 52 51 50 49 49 50 51
51 51 51 52 51 52 52 52 52 52 53 53 53 51 52 51 52 52 51 50 51 51
52 52 52 51 51 51 51 51 51 52 52 52 53 50 50 50 52 52 52 52 51 51
45 49 52 52 52 52 52 52 52 51 51 51 52 49 49 49 51 53 52 52 52 52
39 40 41 43 46 51 53 52 51 43 40 42 43 39 45 46 50 50 49 42 40 38
34 35 36 38 38 41 44 38 34 33 33 33 34 36 38 43 47 45 37 33 32 32

GFSNIL_sfc_30mbdewp_111.txt.gz
Dewpoint
59 59 58 57 56 56 56 57 59 59 58 58 57 57 56 56 55 55 55 55 54 55
59 59 57 57 56 55 54 55 57 59 58 58 57 56 56 56 55 55 54 55 55 54
57 58 58 56 55 54 54 55 58 58 57 57 56 56 56 55 55 55 55 55 55 54
56 57 57 56 55 54 55 55 55 57 57 56 55 55 54 54 55 55 55 55 54 54
56 57 56 55 54 54 55 54 54 56 57 56 55 54 53 53 53 53 54 54 54 54
55 57 55 55 54 54 54 54 54 54 56 55 54 54 53 53 52 53 53 54 54 53
55 56 54 54 54 54 54 53 53 53 55 55 55 54 53 53 52 53 53 54 53 53
55 54 54 53 54 54 53 53 53 53 53 54 54 54 53 52 52 52 52 52 53 53
54 54 54 53 53 53 54 53 54 53 53 53 52 53 53 52 51 51 51 51 52 51
53 53 53 53 53 53 53 54 53 53 53 53 53 52 51 51 52 51 50 50 51 50
53 52 52 52 52 52 52 52 53 54 54 53 54 51 51 50 52 52 51 50 50 51
47 50 51 51 52 52 52 52 52 53 53 53 48 46 50 50 52 52 52 52 51 51
39 42 43 44 48 50 52 50 44 40 38 38 42 37 40 46 51 50 45 41 38 38
34 36 37 38 39 41 39 36 34 33 31 31 32 34 38 42 49 46 38 34 33 33

GFSNIL_sfc_30mbdewp_114.txt.gz
Dewpoint
60 60 59 59 59 59 59 59 61 61 60 60 59 58 57 57 56 56 55 54 55 56
58 60 58 59 60 58 58 58 60 60 58 59 58 58 57 56 56 56 55 55 55 55
57 58 59 60 58 58 57 57 60 59 58 58 58 57 57 56 56 55 55 55 55 55
56 57 59 59 59 57 56 56 59 58 58 58 57 57 56 56 55 55 55 55 55 54
57 57 58 59 58 57 56 57 58 58 57 56 56 56 55 55 55 54 54 54 54 55
56 56 57 59 56 56 55 55 54 57 57 56 55 55 55 54 54 55 55 54 54 54
55 56 56 57 55 55 55 53 53 57 56 55 55 54 54 54 53 54 54 55 55 54
55 56 56 55 54 55 55 54 53 54 55 55 55 54 54 53 53 52 53 54 54 54
55 56 56 55 55 55 55 54 53 52 55 55 54 53 53 53 52 52 52 52 53 53
55 55 55 55 54 54 54 54 53 52 52 53 52 52 52 52 52 51 52 52 52 52
54 54 55 55 54 54 54 54 54 54 53 53 51 51 50 51 53 51 51 51 51 51
42 53 54 53 53 54 54 54 53 50 48 47 41 43 49 50 52 52 51 50 45 50
36 41 47 49 51 51 49 43 38 36 35 36 37 37 42 48 52 47 41 38 38 39
33 35 36 38 40 41 38 34 32 30 30 31 32 34 40 44 48 41 36 34 32 32

GFSNIL_sfc_30mbdewp_117.txt.gz
Dewpoint
52 60 59 59 60 59 59 60 61 62 61 60 59 58 58 58 57 56 56 56 55 55
50 56 60 59 59 60 60 60 61 61 60 60 59 58 58 57 57 56 55 55 55 55
48 51 60 59 58 59 60 60 61 61 60 59 59 58 58 57 57 56 55 55 55 55
46 50 58 58 58 59 59 59 60 60 59 58 58 58 57 56 56 55 55 55 55 55
45 56 57 58 58 59 58 59 59 58 58 57 57 57 56 55 55 55 54 55 55 55
44 57 57 57 58 58 58 58 58 58 57 57 56 56 56 55 55 55 55 55 55 54
42 55 57 57 58 57 57 57 58 57 57 56 56 56 55 55 55 55 55 55 54 55
42 53 56 57 57 57 56 55 56 57 56 56 55 55 54 54 54 54 54 54 55 55
46 54 56 56 56 57 55 54 55 56 55 55 55 54 53 54 53 53 53 53 53 54
38 55 56 56 55 56 55 54 54 55 55 54 54 53 52 53 53 52 52 52 52 52
35 43 55 55 55 55 55 54 53 54 54 53 49 51 51 52 52 52 52 52 52 52
34 37 53 54 54 55 55 54 51 51 50 47 43 46 51 51 52 51 49 47 46 51
33 34 36 51 54 54 47 41 38 36 36 37 39 40 47 51 51 45 40 37 38 38
32 33 33 37 44 42 37 34 32 31 30 31 33 37 43 48 46 40 36 34 33 33

GFSNIL_sfc_30mbdewp_120.txt.gz
Dewpoint
45 47 51 58 60 60 60 60 61 62 62 61 60 60 59 58 58 58 57 56 57 56
42 44 48 51 59 60 60 59 60 61 61 60 60 59 59 58 57 57 57 56 56 56
40 42 45 48 51 60 60 60 60 61 61 60 59 58 58 58 57 57 56 56 56 56
39 40 44 46 51 58 60 60 60 61 61 60 59 58 58 57 57 56 56 56 55 55
38 40 42 45 54 58 59 60 60 61 60 59 59 58 57 56 56 56 55 55 55 55
38 39 41 44 57 58 58 58 60 60 59 58 58 57 57 56 56 56 55 55 55 55
37 39 41 44 53 58 58 58 59 58 58 57 57 56 56 56 55 55 55 55 55 55
36 37 40 46 52 57 58 58 58 58 57 57 56 56 56 55 55 55 54 55 55 55
35 36 38 42 53 57 57 58 58 57 56 55 55 55 55 55 54 54 54 53 54 55
33 34 37 40 53 56 56 56 57 56 55 54 54 53 53 54 54 53 53 53 53 53
32 33 35 38 45 56 56 55 55 55 55 54 53 52 52 52 53 52 52 52 52 52
30 31 34 35 38 55 55 54 54 54 52 50 48 50 51 51 52 51 49 48 47 51
29 30 32 34 36 54 53 46 43 41 40 43 44 45 49 51 49 45 41 39 39 41
28 29 32 33 33 39 38 36 34 33 33 33 36 40 46 49 46 41 37 36 35 35

GFSNIL_sfc_30mbdewp_123.txt.gz
Dewpoint
42 43 46 51 55 60 60 61 62 62 62 62 61 60 60 60 59 58 58 57 56 56
40 40 42 44 47 49 59 61 61 61 62 62 61 60 60 59 58 58 58 57 57 56
39 39 40 42 45 48 51 59 60 60 61 61 61 60 59 59 58 58 57 57 57 56
37 38 39 41 43 46 49 52 59 59 60 60 60 59 59 59 58 57 57 56 56 55
37 38 39 40 42 45 47 54 57 59 60 60 59 59 58 58 57 57 56 55 55 55
36 37 37 38 40 43 46 55 56 59 60 60 59 58 58 58 56 56 56 55 55 55
34 35 36 37 39 43 47 55 58 59 60 59 59 58 58 57 56 56 56 55 55 55
32 34 35 36 39 41 46 54 58 59 59 59 58 57 57 56 56 55 55 55 55 55
31 32 33 35 37 40 43 54 57 58 58 57 57 56 56 56 55 55 54 54 54 55
30 30 32 34 36 38 41 52 56 57 57 56 56 54 54 54 55 54 54 54 54 53
28 29 30 33 34 36 40 48 56 56 56 56 55 53 53 53 54 54 53 53 53 53
27 28 29 31 33 35 38 43 55 56 55 54 51 51 51 52 52 52 51 51 51 52
26 27 28 30 32 34 37 47 48 45 48 50 48 48 49 51 49 46 43 41 42 44
26 27 28 29 31 32 34 35 36 37 35 37 41 45 48 49 47 43 40 40 39 39

GFSNIL_sfc_30mbdewp_126.txt.gz
Dewpoint
42 42 44 46 49 56 59 60 61 62 63 63 63 62 62 61 61 61 60 59 58 57
39 39 40 40 43 45 49 53 60 61 62 63 62 61 61 60 60 60 59 58 58 57
38 38 39 40 41 43 46 48 50 58 60 61 61 61 60 59 59 59 58 58 57 57
37 38 38 39 40 42 44 46 48 51 56 59 59 60 59 58 58 58 58 58 57 57
36 36 37 37 38 40 42 44 46 51 54 56 58 59 59 58 58 57 57 57 57 56
33 34 34 35 37 38 40 42 46 49 54 55 57 59 58 58 57 57 57 57 56 56
32 32 33 34 36 37 39 41 44 48 56 56 57 59 58 58 57 57 57 57 56 55
31 31 32 33 34 35 37 40 42 47 55 57 58 59 58 57 57 57 56 56 55 55
29 29 30 31 32 34 36 39 42 46 55 58 58 58 57 57 57 56 55 54 55 55
27 28 29 30 31 33 35 37 39 43 54 57 58 56 55 56 56 55 55 54 54 54
26 27 28 29 30 32 34 35 38 42 51 56 57 55 54 54 56 55 54 54 54 53
26 26 27 28 29 31 33 34 37 42 51 56 56 53 52 52 54 53 53 53 54 53
25 26 26 28 29 30 32 34 35 37 40 53 54 50 50 51 52 49 47 46 47 51
25 26 25 27 28 29 30 31 33 33 33 33 36 45 46 50 49 46 44 43 42 43

GFSNIL_sfc_30mbdewp_129.txt.gz
Dewpoint
43 45 46 48 49 55 59 60 61 61 61 63 64 64 63 63 62 63 62 61 61 60
41 41 42 43 44 45 47 48 51 60 62 62 63 63 63 62 61 61 62 61 61 60
38 39 40 41 41 42 44 45 46 49 52 59 61 62 62 61 61 60 60 61 61 60
36 36 37 38 39 40 41 43 44 46 48 50 55 60 61 60 60 59 59 60 60 59
34 35 35 36 37 38 39 41 42 44 46 48 52 54 58 60 60 59 58 58 58 57
33 33 34 35 36 37 38 39 41 43 45 47 50 53 55 58 59 58 58 58 57 56
31 31 32 33 34 35 36 37 39 41 43 47 49 54 55 55 58 58 58 57 57 57
30 30 30 32 32 33 35 36 38 40 42 45 48 53 56 55 57 57 57 57 57 57
28 29 30 30 31 32 33 34 36 38 40 43 47 53 56 56 57 57 57 57 57 57
27 28 28 29 30 30 32 33 34 36 39 42 45 51 56 55 58 57 57 57 56 55
26 27 27 28 29 30 31 33 34 35 38 40 43 48 55 54 56 57 57 56 56 55
25 25 25 26 27 29 30 31 32 35 36 37 40 46 54 52 53 56 56 55 55 55
24 25 24 25 26 27 29 30 31 32 33 33 33 35 37 50 53 53 53 52 53 53
24 24 24 24 24 25 26 27 28 29 31 31 31 31 33 40 51 51 48 47 48 49